Time,TemperatureF,DewpointF,PressureIn,WindDirection,WindDirectionDegrees,WindSpeedMPH,WindSpeedGustMPH,Humidity,HourlyPrecipIn,Conditions,Clouds,dailyrainin,SoftwareType,DateUTC
2013-05-10 00:01:00,58.3,54.5,29.90,West,270,0.0,0.0,87,0.00,,,0.16,WUHU216HW,2013-05-10 04:01:00,
2013-05-10 00:06:00,58.1,54.3,29.90,West,270,0.0,0.0,87,0.00,,,0.00,WUHU216HW,2013-05-10 04:06:00,
2013-05-10 00:11:00,58.1,54.6,29.90,West,270,0.0,0.0,88,0.00,,,0.00,WUHU216HW,2013-05-10 04:11:00,
2013-05-10 00:16:00,58.0,54.5,29.90,West,270,0.0,0.0,88,0.00,,,0.00,WUHU216HW,2013-05-10 04:16:00,
2013-05-10 00:21:00,58.0,54.1,29.90,West,270,0.0,0.0,87,0.00,,,0.00,WUHU216HW,2013-05-10 04:21:00,
2013-05-10 00:26:00,58.0,54.1,29.90,West,270,0.0,0.0,87,0.00,,,0.00,WUHU216HW,2013-05-10 04:26:00,
2013-05-10 00:31:00,57.8,53.9,29.90,West,270,0.0,0.0,87,0.00,,,0.00,WUHU216HW,2013-05-10 04:31:00,
2013-05-10 00:36:00,57.8,53.9,29.90,West,270,0.0,0.0,87,0.00,,,0.00,WUHU216HW,2013-05-10 04:36:00,
2013-05-10 00:41:00,57.8,53.9,29.90,West,270,0.0,0.0,87,0.00,,,0.00,WUHU216HW,2013-05-10 04:41:00,
2013-05-10 00:46:00,57.6,53.7,29.90,West,270,0.0,0.0,87,0.00,,,0.00,WUHU216HW,2013-05-10 04:46:00,
2013-05-10 00:51:00,57.6,53.7,29.90,West,270,0.0,0.0,87,0.00,,,0.00,WUHU216HW,2013-05-10 04:51:00,
2013-05-10 00:56:00,57.4,53.6,29.90,West,270,0.0,0.0,87,0.00,,,0.00,WUHU216HW,2013-05-10 04:56:00,
2013-05-10 01:01:00,57.4,53.6,29.90,West,270,0.0,0.0,87,0.00,,,0.00,WUHU216HW,2013-05-10 05:01:00,
2013-05-10 01:06:00,57.4,53.6,29.90,West,270,0.0,0.0,87,0.00,,,0.00,WUHU216HW,2013-05-10 05:06:00,
2013-05-10 01:11:00,57.2,53.7,29.90,West,270,0.0,0.0,88,0.00,,,0.00,WUHU216HW,2013-05-10 05:11:00,
2013-05-10 01:16:00,57.2,53.7,29.90,West,270,0.0,0.0,88,0.00,,,0.00,WUHU216HW,2013-05-10 05:16:00,
2013-05-10 01:21:00,57.2,53.7,29.89,West,270,0.0,0.0,88,0.00,,,0.00,WUHU216HW,2013-05-10 05:21:00,
2013-05-10 01:26:00,57.1,53.6,29.89,West,270,0.0,0.0,88,0.00,,,0.00,WUHU216HW,2013-05-10 05:26:00,
2013-05-10 01:31:00,57.1,53.6,29.90,West,270,0.0,0.0,88,0.00,,,0.00,WUHU216HW,2013-05-10 05:31:00,
2013-05-10 01:36:00,56.9,53.4,29.90,West,270,0.0,0.0,88,0.00,,,0.00,WUHU216HW,2013-05-10 05:36:00,
2013-05-10 01:41:00,56.9,53.4,29.90,West,270,0.0,0.0,88,0.00,,,0.00,WUHU216HW,2013-05-10 05:41:00,
2013-05-10 01:46:00,56.7,53.2,29.89,West,270,0.0,0.0,88,0.00,,,0.00,WUHU216HW,2013-05-10 05:46:00,
2013-05-10 01:51:00,56.7,53.2,29.89,West,270,0.0,0.0,88,0.00,,,0.00,WUHU216HW,2013-05-10 05:51:00,
2013-05-10 01:56:00,56.7,53.2,29.89,West,270,0.0,0.0,88,0.00,,,0.00,WUHU216HW,2013-05-10 05:56:00,
2013-05-10 02:01:00,56.5,53.0,29.89,West,270,0.0,0.0,88,0.00,,,0.00,WUHU216HW,2013-05-10 06:01:00,
2013-05-10 02:06:00,56.5,53.0,29.89,West,270,0.0,0.0,88,0.00,,,0.00,WUHU216HW,2013-05-10 06:06:00,
2013-05-10 02:11:00,56.5,53.0,29.89,West,270,0.0,0.0,88,0.00,,,0.00,WUHU216HW,2013-05-10 06:11:00,
2013-05-10 02:16:00,56.5,53.0,29.89,West,270,0.0,0.0,88,0.00,,,0.00,WUHU216HW,2013-05-10 06:16:00,
2013-05-10 02:21:00,56.5,53.0,29.89,West,270,0.0,0.0,88,0.00,,,0.00,WUHU216HW,2013-05-10 06:21:00,
2013-05-10 02:26:00,56.3,52.8,29.89,West,270,0.0,0.0,88,0.00,,,0.00,WUHU216HW,2013-05-10 06:26:00,
2013-05-10 02:31:00,56.3,52.8,29.89,West,270,0.0,0.0,88,0.00,,,0.00,WUHU216HW,2013-05-10 06:31:00,
2013-05-10 02:36:00,56.3,53.1,29.90,West,270,0.0,0.0,89,0.00,,,0.00,WUHU216HW,2013-05-10 06:36:00,
2013-05-10 02:41:00,56.3,53.1,29.89,West,270,0.0,0.0,89,0.00,,,0.00,WUHU216HW,2013-05-10 06:41:00,
2013-05-10 02:46:00,56.2,52.7,29.90,West,270,0.0,0.0,88,0.00,,,0.00,WUHU216HW,2013-05-10 06:46:00,
2013-05-10 02:51:00,56.2,52.7,29.90,West,270,0.0,0.0,88,0.00,,,0.00,WUHU216HW,2013-05-10 06:51:00,
2013-05-10 02:56:00,56.2,52.9,29.90,West,270,0.0,0.0,89,0.00,,,0.00,WUHU216HW,2013-05-10 06:56:00,
2013-05-10 03:01:00,56.2,52.9,29.89,West,270,0.0,0.0,89,0.00,,,0.00,WUHU216HW,2013-05-10 07:01:00,
2013-05-10 03:06:00,56.0,52.7,29.90,West,270,0.0,0.0,89,0.00,,,0.00,WUHU216HW,2013-05-10 07:06:00,
2013-05-10 03:11:00,56.0,52.7,29.89,West,270,0.0,0.0,89,0.00,,,0.00,WUHU216HW,2013-05-10 07:11:00,
2013-05-10 03:16:00,56.0,52.7,29.89,West,270,0.0,0.0,89,0.00,,,0.00,WUHU216HW,2013-05-10 07:16:00,
2013-05-10 03:21:00,55.8,52.6,29.89,West,270,0.0,0.0,89,0.00,,,0.00,WUHU216HW,2013-05-10 07:21:00,
2013-05-10 03:26:00,55.8,52.6,29.89,West,270,0.0,0.0,89,0.00,,,0.00,WUHU216HW,2013-05-10 07:26:00,
2013-05-10 03:31:00,55.8,52.6,29.89,West,270,0.0,0.0,89,0.00,,,0.00,WUHU216HW,2013-05-10 07:31:00,
2013-05-10 03:36:00,55.8,52.6,29.89,West,270,0.0,0.0,89,0.00,,,0.00,WUHU216HW,2013-05-10 07:36:00,
2013-05-10 03:41:00,55.8,52.6,29.89,West,270,0.0,0.0,89,0.00,,,0.00,WUHU216HW,2013-05-10 07:41:00,
2013-05-10 03:46:00,55.6,52.4,29.89,West,270,0.0,0.0,89,0.00,,,0.00,WUHU216HW,2013-05-10 07:46:00,
2013-05-10 03:51:00,55.6,52.4,29.90,West,270,0.0,0.0,89,0.00,,,0.00,WUHU216HW,2013-05-10 07:51:00,
2013-05-10 03:56:00,55.4,52.2,29.90,West,270,0.0,0.0,89,0.00,,,0.00,WUHU216HW,2013-05-10 07:56:00,
2013-05-10 04:01:00,55.4,52.2,29.89,West,270,0.0,0.0,89,0.00,,,0.00,WUHU216HW,2013-05-10 08:01:00,
2013-05-10 04:06:00,55.4,52.2,29.90,West,270,0.0,0.0,89,0.00,,,0.00,WUHU216HW,2013-05-10 08:06:00,
2013-05-10 04:11:00,55.4,52.2,29.90,West,270,0.0,0.0,89,0.00,,,0.00,WUHU216HW,2013-05-10 08:11:00,
2013-05-10 04:16:00,55.4,52.2,29.90,West,270,0.0,0.0,89,0.00,,,0.00,WUHU216HW,2013-05-10 08:16:00,
2013-05-10 04:21:00,55.4,52.2,29.90,West,270,0.0,0.0,89,0.00,,,0.00,WUHU216HW,2013-05-10 08:21:00,
2013-05-10 04:26:00,55.3,52.0,29.90,West,270,0.0,0.0,89,0.00,,,0.00,WUHU216HW,2013-05-10 08:26:00,
2013-05-10 04:31:00,55.3,52.0,29.89,West,270,0.0,0.0,89,0.00,,,0.00,WUHU216HW,2013-05-10 08:31:00,
2013-05-10 04:36:00,55.3,52.0,29.90,West,270,0.0,0.0,89,0.00,,,0.00,WUHU216HW,2013-05-10 08:36:00,
2013-05-10 04:41:00,55.1,51.8,29.90,West,270,0.0,0.0,89,0.00,,,0.00,WUHU216HW,2013-05-10 08:41:00,
2013-05-10 04:46:00,55.1,51.8,29.90,West,270,0.0,0.0,89,0.00,,,0.00,WUHU216HW,2013-05-10 08:46:00,
2013-05-10 04:51:00,55.1,51.8,29.90,West,270,0.0,0.0,89,0.00,,,0.00,WUHU216HW,2013-05-10 08:51:00,
2013-05-10 04:56:00,54.9,51.7,29.90,West,270,0.0,0.0,89,0.00,,,0.00,WUHU216HW,2013-05-10 08:56:00,
2013-05-10 05:01:00,54.9,51.7,29.90,West,270,0.0,0.0,89,0.00,,,0.00,WUHU216HW,2013-05-10 09:01:00,
2013-05-10 05:06:00,54.9,51.7,29.90,West,270,0.0,0.0,89,0.00,,,0.00,WUHU216HW,2013-05-10 09:06:00,
2013-05-10 05:11:00,54.9,51.7,29.91,West,270,0.0,0.0,89,0.00,,,0.00,WUHU216HW,2013-05-10 09:11:00,
2013-05-10 05:16:00,54.9,51.7,29.91,West,270,0.0,0.0,89,0.00,,,0.00,WUHU216HW,2013-05-10 09:16:00,
2013-05-10 05:21:00,54.7,51.5,29.91,West,270,0.0,0.0,89,0.00,,,0.00,WUHU216HW,2013-05-10 09:21:00,
2013-05-10 05:26:00,54.7,51.5,29.92,West,270,0.0,0.0,89,0.00,,,0.00,WUHU216HW,2013-05-10 09:26:00,
2013-05-10 05:31:00,54.7,51.5,29.92,West,270,0.0,0.0,89,0.00,,,0.00,WUHU216HW,2013-05-10 09:31:00,
2013-05-10 05:36:00,54.7,51.5,29.92,West,270,0.0,0.0,89,0.00,,,0.00,WUHU216HW,2013-05-10 09:36:00,
2013-05-10 05:41:00,54.5,51.3,29.93,WSW,248,0.0,0.2,89,0.00,,,0.00,WUHU216HW,2013-05-10 09:41:00,
2013-05-10 05:46:00,54.7,51.8,29.93,WNW,293,0.0,0.2,90,0.00,,,0.00,WUHU216HW,2013-05-10 09:46:00,
2013-05-10 05:51:00,54.7,51.8,29.92,WNW,293,0.0,0.2,90,0.00,,,0.00,WUHU216HW,2013-05-10 09:51:00,
2013-05-10 05:56:00,54.7,51.8,29.92,WNW,293,0.0,0.0,90,0.00,,,0.00,WUHU216HW,2013-05-10 09:56:00,
2013-05-10 06:01:00,54.9,52.0,29.93,West,270,0.0,0.0,90,0.00,,,0.00,WUHU216HW,2013-05-10 10:01:00,
2013-05-10 06:06:00,54.9,52.0,29.93,West,270,0.0,0.0,90,0.00,,,0.00,WUHU216HW,2013-05-10 10:06:00,
2013-05-10 06:11:00,54.9,52.0,29.93,West,270,0.0,0.0,90,0.00,,,0.00,WUHU216HW,2013-05-10 10:11:00,
2013-05-10 06:16:00,55.1,52.2,29.93,West,270,0.0,0.0,90,0.00,,,0.00,WUHU216HW,2013-05-10 10:16:00,
2013-05-10 06:21:00,55.1,52.2,29.93,West,270,0.0,0.0,90,0.00,,,0.00,WUHU216HW,2013-05-10 10:21:00,
2013-05-10 06:26:00,55.1,52.2,29.93,West,270,0.0,0.0,90,0.00,,,0.00,WUHU216HW,2013-05-10 10:26:00,
2013-05-10 06:31:00,55.3,52.7,29.93,West,270,0.0,0.0,91,0.00,,,0.00,WUHU216HW,2013-05-10 10:31:00,
2013-05-10 06:36:00,55.3,52.7,29.93,West,270,0.0,0.0,91,0.00,,,0.00,WUHU216HW,2013-05-10 10:36:00,
2013-05-10 06:41:00,55.4,52.8,29.93,West,270,0.0,0.0,91,0.00,,,0.00,WUHU216HW,2013-05-10 10:41:00,
2013-05-10 06:46:00,55.6,53.0,29.93,West,270,0.0,0.0,91,0.00,,,0.00,WUHU216HW,2013-05-10 10:46:00,
2013-05-10 06:51:00,55.8,53.2,29.94,WSW,248,0.2,0.2,91,0.00,,,0.00,WUHU216HW,2013-05-10 10:51:00,
2013-05-10 06:56:00,55.8,53.2,29.94,West,270,0.0,0.2,91,0.00,,,0.00,WUHU216HW,2013-05-10 10:56:00,
2013-05-10 07:01:00,56.2,53.6,29.94,WSW,248,0.0,0.2,91,0.00,,,0.00,WUHU216HW,2013-05-10 11:01:00,
2013-05-10 07:06:00,56.5,53.9,29.94,SW,225,0.0,0.2,91,0.00,,,0.00,WUHU216HW,2013-05-10 11:06:00,
2013-05-10 07:11:00,56.9,54.5,29.94,West,270,2.7,2.7,92,0.00,,,0.00,WUHU216HW,2013-05-10 11:11:00,
2013-05-10 07:16:00,57.2,54.9,29.94,West,270,0.2,2.7,92,0.00,,,0.00,WUHU216HW,2013-05-10 11:16:00,
2013-05-10 07:21:00,57.8,55.4,29.94,WSW,248,2.2,2.7,92,0.00,,,0.00,WUHU216HW,2013-05-10 11:21:00,
2013-05-10 07:26:00,58.1,55.8,29.94,West,270,1.1,2.5,92,0.00,,,0.00,WUHU216HW,2013-05-10 11:26:00,
2013-05-10 07:31:00,58.3,56.0,29.94,WSW,248,0.4,2.5,92,0.00,,,0.00,WUHU216HW,2013-05-10 11:31:00,
2013-05-10 07:36:00,58.7,56.3,29.94,WSW,248,2.2,2.2,92,0.00,,,0.00,WUHU216HW,2013-05-10 11:36:00,
2013-05-10 07:41:00,59.2,56.9,29.94,WSW,248,0.4,2.2,92,0.00,,,0.00,WUHU216HW,2013-05-10 11:41:00,
2013-05-10 07:46:00,59.6,57.2,29.94,WSW,248,1.3,2.2,92,0.00,,,0.00,WUHU216HW,2013-05-10 11:46:00,
2013-05-10 07:51:00,59.9,57.3,29.94,WSW,248,0.9,1.6,91,0.00,,,0.00,WUHU216HW,2013-05-10 11:51:00,
2013-05-10 07:56:00,60.1,57.5,29.94,WSW,248,1.1,2.0,91,0.00,,,0.00,WUHU216HW,2013-05-10 11:56:00,
2013-05-10 08:01:00,60.8,58.2,29.95,WSW,248,0.2,2.0,91,0.00,,,0.00,WUHU216HW,2013-05-10 12:01:00,
2013-05-10 08:06:00,61.7,58.9,29.94,WSW,248,0.4,1.3,90,0.00,,,0.00,WUHU216HW,2013-05-10 12:06:00,
2013-05-10 08:11:00,62.3,59.0,29.95,WSW,248,1.3,2.7,89,0.00,,,0.00,WUHU216HW,2013-05-10 12:11:00,
2013-05-10 08:16:00,62.8,59.2,29.95,WSW,248,1.1,3.1,88,0.00,,,0.00,WUHU216HW,2013-05-10 12:16:00,
2013-05-10 08:21:00,63.0,59.1,29.95,WSW,248,2.5,3.4,87,0.00,,,0.00,WUHU216HW,2013-05-10 12:21:00,
2013-05-10 08:26:00,63.9,59.7,29.95,WSW,248,0.0,3.4,86,0.00,,,0.00,WUHU216HW,2013-05-10 12:26:00,
2013-05-10 08:31:00,64.4,59.5,29.94,WSW,248,1.6,3.4,84,0.00,,,0.00,WUHU216HW,2013-05-10 12:31:00,
2013-05-10 08:36:00,64.4,59.1,29.95,WSW,248,0.9,3.1,83,0.00,,,0.00,WUHU216HW,2013-05-10 12:36:00,
2013-05-10 08:41:00,64.4,59.1,29.94,North,0,0.0,2.5,83,0.00,,,0.00,WUHU216HW,2013-05-10 12:41:00,
2013-05-10 08:46:00,64.4,59.1,29.94,North,0,0.4,1.8,83,0.00,,,0.00,WUHU216HW,2013-05-10 12:46:00,
2013-05-10 08:51:00,64.6,59.3,29.94,WSW,248,1.3,1.3,83,0.00,,,0.00,WUHU216HW,2013-05-10 12:51:00,
2013-05-10 08:56:00,64.8,59.9,29.95,WSW,248,1.3,1.3,84,0.00,,,0.00,WUHU216HW,2013-05-10 12:56:00,
2013-05-10 09:01:00,65.2,59.9,29.95,West,270,0.9,2.7,83,0.00,,,0.00,WUHU216HW,2013-05-10 13:01:00,
2013-05-10 09:06:00,66.6,61.3,29.95,WSW,248,0.2,4.0,83,0.00,,,0.00,WUHU216HW,2013-05-10 13:06:00,
2013-05-10 09:11:00,69.7,63.9,29.94,NW,315,0.0,4.0,82,0.00,,,0.00,WUHU216HW,2013-05-10 13:11:00,
2013-05-10 09:16:00,72.9,66.4,29.94,WNW,293,0.2,3.4,80,0.00,,,0.00,WUHU216HW,2013-05-10 13:16:00,
2013-05-10 09:21:00,74.7,66.2,29.94,WNW,293,0.7,0.7,75,0.00,,,0.00,WUHU216HW,2013-05-10 13:21:00,
2013-05-10 09:26:00,76.1,66.1,29.93,NW,315,0.2,1.1,71,0.00,,,0.00,WUHU216HW,2013-05-10 13:26:00,
2013-05-10 09:31:00,76.7,65.8,29.93,NE,45,0.9,1.1,69,0.00,,,0.00,WUHU216HW,2013-05-10 13:31:00,
2013-05-10 09:36:00,76.9,65.5,29.94,NE,45,0.4,2.2,68,0.00,,,0.00,WUHU216HW,2013-05-10 13:36:00,
2013-05-10 09:41:00,76.9,63.7,29.94,NNW,338,0.4,2.2,64,0.00,,,0.00,WUHU216HW,2013-05-10 13:41:00,
2013-05-10 09:46:00,76.9,64.6,29.94,SSW,203,1.1,1.1,66,0.00,,,0.00,WUHU216HW,2013-05-10 13:46:00,
2013-05-10 09:51:00,76.5,62.9,29.94,North,0,0.7,1.6,63,0.00,,,0.00,WUHU216HW,2013-05-10 13:51:00,
2013-05-10 09:56:00,76.0,63.4,29.94,NE,45,0.0,1.6,65,0.00,,,0.00,WUHU216HW,2013-05-10 13:56:00,
2013-05-10 10:01:00,75.6,63.0,29.94,NNW,338,0.2,1.3,65,0.00,,,0.00,WUHU216HW,2013-05-10 14:01:00,
2013-05-10 10:06:00,75.2,61.7,29.94,West,270,0.4,2.7,63,0.00,,,0.00,WUHU216HW,2013-05-10 14:06:00,
2013-05-10 10:11:00,74.7,61.7,29.94,NNE,23,1.8,2.7,64,0.00,,,0.00,WUHU216HW,2013-05-10 14:11:00,
2013-05-10 10:16:00,74.5,61.9,29.94,WSW,248,0.4,2.0,65,0.00,,,0.00,WUHU216HW,2013-05-10 14:16:00,
2013-05-10 10:21:00,74.2,60.3,29.95,NNW,338,0.4,1.8,62,0.00,,,0.00,WUHU216HW,2013-05-10 14:21:00,
2013-05-10 10:26:00,74.2,61.2,29.94,NW,315,0.0,1.8,64,0.00,,,0.00,WUHU216HW,2013-05-10 14:26:00,
2013-05-10 10:31:00,74.2,61.2,29.94,SSW,203,0.7,3.4,64,0.00,,,0.00,WUHU216HW,2013-05-10 14:31:00,
2013-05-10 10:36:00,74.0,61.5,29.94,ESE,113,0.0,3.4,65,0.00,,,0.00,WUHU216HW,2013-05-10 14:36:00,
2013-05-10 10:41:00,74.0,61.5,29.94,SSE,158,2.2,2.7,65,0.00,,,0.00,WUHU216HW,2013-05-10 14:41:00,
2013-05-10 10:46:00,74.2,61.2,29.94,SW,225,1.3,2.7,64,0.00,,,0.00,WUHU216HW,2013-05-10 14:46:00,
2013-05-10 10:51:00,74.2,60.8,29.94,SW,225,0.4,2.2,63,0.00,,,0.00,WUHU216HW,2013-05-10 14:51:00,
2013-05-10 10:56:00,74.2,60.8,29.94,SE,135,0.9,2.2,63,0.00,,,0.00,WUHU216HW,2013-05-10 14:56:00,
2013-05-10 11:01:00,74.3,59.6,29.94,North,0,0.4,1.3,60,0.00,,,0.00,WUHU216HW,2013-05-10 15:01:00,
2013-05-10 11:06:00,74.5,60.2,29.94,SW,225,1.1,1.8,61,0.00,,,0.00,WUHU216HW,2013-05-10 15:06:00,
2013-05-10 11:11:00,74.5,60.7,29.94,SE,135,0.9,1.8,62,0.00,,,0.00,WUHU216HW,2013-05-10 15:11:00,
2013-05-10 11:16:00,74.9,59.1,29.94,West,270,1.1,2.2,58,0.00,,,0.00,WUHU216HW,2013-05-10 15:16:00,
2013-05-10 11:21:00,75.1,56.8,29.94,NW,315,1.8,2.7,53,0.00,,,0.00,WUHU216HW,2013-05-10 15:21:00,
2013-05-10 11:26:00,75.1,58.3,29.94,SW,225,1.3,2.7,56,0.00,,,0.00,WUHU216HW,2013-05-10 15:26:00,
2013-05-10 11:31:00,75.2,59.0,29.94,SSW,203,1.1,2.5,57,0.00,,,0.00,WUHU216HW,2013-05-10 15:31:00,
2013-05-10 11:36:00,75.2,59.9,29.94,ESE,113,0.7,2.5,59,0.00,,,0.00,WUHU216HW,2013-05-10 15:36:00,
2013-05-10 11:41:00,75.4,60.7,29.93,SSE,158,2.7,3.4,60,0.00,,,0.00,WUHU216HW,2013-05-10 15:41:00,
2013-05-10 11:46:00,75.6,60.9,29.94,SSW,203,4.9,4.9,60,0.00,,,0.00,WUHU216HW,2013-05-10 15:46:00,
2013-05-10 11:51:00,75.6,60.9,29.93,SE,135,1.8,4.9,60,0.00,,,0.00,WUHU216HW,2013-05-10 15:51:00,
2013-05-10 11:56:00,75.6,60.3,29.93,NE,45,1.8,4.9,59,0.00,,,0.00,WUHU216HW,2013-05-10 15:56:00,
2013-05-10 12:01:00,75.6,60.3,29.93,SE,135,3.4,4.0,59,0.00,,,0.00,WUHU216HW,2013-05-10 16:01:00,
2013-05-10 12:06:00,75.6,60.3,29.93,SE,135,2.0,3.4,59,0.00,,,0.00,WUHU216HW,2013-05-10 16:06:00,
2013-05-10 12:11:00,75.2,59.0,29.93,SSW,203,1.3,4.5,57,0.00,,,0.00,WUHU216HW,2013-05-10 16:11:00,
2013-05-10 12:16:00,75.2,59.5,29.93,SSE,158,1.8,4.5,58,0.00,,,0.00,WUHU216HW,2013-05-10 16:16:00,
2013-05-10 12:21:00,75.8,60.5,29.93,East,90,0.4,2.5,59,0.00,,,0.00,WUHU216HW,2013-05-10 16:21:00,
2013-05-10 12:26:00,76.0,60.7,29.93,ESE,113,0.9,2.2,59,0.00,,,0.00,WUHU216HW,2013-05-10 16:26:00,
2013-05-10 12:31:00,76.1,60.8,29.93,West,270,0.9,5.4,59,0.00,,,0.00,WUHU216HW,2013-05-10 16:31:00,
2013-05-10 12:36:00,76.3,60.5,29.93,SSE,158,0.9,5.4,58,0.00,,,0.00,WUHU216HW,2013-05-10 16:36:00,
2013-05-10 12:41:00,76.7,60.8,29.93,SSW,203,1.1,2.9,58,0.00,,,0.00,WUHU216HW,2013-05-10 16:41:00,
2013-05-10 12:46:00,77.0,61.1,29.93,East,90,0.4,2.7,58,0.00,,,0.00,WUHU216HW,2013-05-10 16:46:00,
2013-05-10 12:51:00,77.2,60.3,29.93,WSW,248,2.0,4.0,56,0.00,,,0.00,WUHU216HW,2013-05-10 16:51:00,
2013-05-10 12:56:00,77.4,60.4,29.93,SW,225,2.5,4.0,56,0.00,,,0.00,WUHU216HW,2013-05-10 16:56:00,
2013-05-10 13:01:00,77.8,60.8,29.93,SW,225,1.3,3.4,56,0.00,,,0.00,WUHU216HW,2013-05-10 17:01:00,
2013-05-10 13:06:00,77.9,60.5,29.93,South,180,1.3,3.6,55,0.00,,,0.00,WUHU216HW,2013-05-10 17:06:00,
2013-05-10 13:11:00,78.1,60.1,29.93,West,270,1.8,3.6,54,0.00,,,0.00,WUHU216HW,2013-05-10 17:11:00,
2013-05-10 13:16:00,78.1,60.1,29.93,SSW,203,1.1,2.7,54,0.00,,,0.00,WUHU216HW,2013-05-10 17:16:00,
2013-05-10 13:21:00,78.3,60.3,29.93,East,90,1.1,3.4,54,0.00,,,0.00,WUHU216HW,2013-05-10 17:21:00,
2013-05-10 13:26:00,78.5,60.0,29.93,West,270,0.9,3.4,53,0.00,,,0.00,WUHU216HW,2013-05-10 17:26:00,
2013-05-10 13:31:00,78.3,59.2,29.93,SSW,203,1.8,2.9,52,0.00,,,0.00,WUHU216HW,2013-05-10 17:31:00,
2013-05-10 13:36:00,78.3,59.2,29.93,SW,225,1.8,4.9,52,0.00,,,0.00,WUHU216HW,2013-05-10 17:36:00,
2013-05-10 13:41:00,78.3,59.2,29.93,West,270,0.2,4.9,52,0.00,,,0.00,WUHU216HW,2013-05-10 17:41:00,
2013-05-10 13:46:00,78.3,59.8,29.92,NE,45,0.7,3.8,53,0.00,,,0.00,WUHU216HW,2013-05-10 17:46:00,
2013-05-10 13:51:00,78.3,59.2,29.92,SE,135,1.1,3.8,52,0.00,,,0.00,WUHU216HW,2013-05-10 17:51:00,
2013-05-10 13:56:00,78.5,60.4,29.92,ESE,113,1.8,2.9,54,0.00,,,0.00,WUHU216HW,2013-05-10 17:56:00,
2013-05-10 14:01:00,78.3,59.2,29.92,SW,225,1.8,2.9,52,0.00,,,0.00,WUHU216HW,2013-05-10 18:01:00,
2013-05-10 14:06:00,78.1,59.6,29.92,SE,135,2.7,3.1,53,0.00,,,0.00,WUHU216HW,2013-05-10 18:06:00,
2013-05-10 14:11:00,77.9,60.0,29.92,SSE,158,2.9,3.1,54,0.00,,,0.00,WUHU216HW,2013-05-10 18:11:00,
2013-05-10 14:16:00,77.8,58.8,29.92,SE,135,2.5,3.8,52,0.00,,,0.00,WUHU216HW,2013-05-10 18:16:00,
2013-05-10 14:21:00,77.8,59.2,29.92,SW,225,1.1,3.8,53,0.00,,,0.00,WUHU216HW,2013-05-10 18:21:00,
2013-05-10 14:26:00,77.4,59.4,29.92,East,90,1.8,2.5,54,0.00,,,0.00,WUHU216HW,2013-05-10 18:26:00,
2013-05-10 14:31:00,77.4,59.0,29.92,SSE,158,2.9,3.4,53,0.00,,,0.00,WUHU216HW,2013-05-10 18:31:00,
2013-05-10 14:36:00,77.2,59.2,29.92,South,180,0.9,3.4,54,0.00,,,0.00,WUHU216HW,2013-05-10 18:36:00,
2013-05-10 14:41:00,77.0,59.0,29.92,ENE,68,1.3,2.9,54,0.00,,,0.00,WUHU216HW,2013-05-10 18:41:00,
2013-05-10 14:46:00,76.9,59.0,29.92,ESE,113,2.2,3.4,54,0.00,,,0.00,WUHU216HW,2013-05-10 18:46:00,
2013-05-10 14:51:00,76.7,58.2,29.92,ESE,113,2.0,4.0,53,0.00,,,0.00,WUHU216HW,2013-05-10 18:51:00,
2013-05-10 14:56:00,76.7,58.8,29.92,SW,225,2.5,4.0,54,0.00,,,0.00,WUHU216HW,2013-05-10 18:56:00,
2013-05-10 15:01:00,76.7,58.8,29.92,WNW,293,2.2,2.7,54,0.00,,,0.00,WUHU216HW,2013-05-10 19:01:00,
2013-05-10 15:06:00,76.5,59.1,29.92,SE,135,1.8,4.9,55,0.00,,,0.00,WUHU216HW,2013-05-10 19:06:00,
2013-05-10 15:11:00,76.3,59.4,29.92,SW,225,1.8,4.9,56,0.00,,,0.00,WUHU216HW,2013-05-10 19:11:00,
2013-05-10 15:16:00,76.1,59.3,29.92,SW,225,3.1,4.5,56,0.00,,,0.00,WUHU216HW,2013-05-10 19:16:00,
2013-05-10 15:21:00,76.1,59.3,29.92,SSE,158,3.6,3.6,56,0.00,,,0.00,WUHU216HW,2013-05-10 19:21:00,
2013-05-10 15:26:00,76.0,58.6,29.92,SSE,158,1.1,3.6,55,0.00,,,0.00,WUHU216HW,2013-05-10 19:26:00,
2013-05-10 15:31:00,75.8,58.4,29.92,East,90,1.8,4.5,55,0.00,,,0.00,WUHU216HW,2013-05-10 19:31:00,
2013-05-10 15:36:00,75.4,58.2,29.92,South,180,2.2,4.5,55,0.00,,,0.00,WUHU216HW,2013-05-10 19:36:00,
2013-05-10 15:41:00,75.2,58.5,29.92,SSE,158,0.4,3.1,56,0.00,,,0.00,WUHU216HW,2013-05-10 19:41:00,
2013-05-10 15:46:00,75.2,58.5,29.92,SW,225,0.9,2.7,56,0.00,,,0.00,WUHU216HW,2013-05-10 19:46:00,
2013-05-10 15:51:00,75.1,57.8,29.92,SSW,203,1.1,4.0,55,0.00,,,0.00,WUHU216HW,2013-05-10 19:51:00,
2013-05-10 15:56:00,74.5,57.2,29.92,SW,225,1.8,4.0,55,0.00,,,0.00,WUHU216HW,2013-05-10 19:56:00,
2013-05-10 16:01:00,74.2,56.9,29.92,South,180,1.1,4.7,55,0.00,,,0.00,WUHU216HW,2013-05-10 20:01:00,
2013-05-10 16:06:00,73.8,56.0,29.92,South,180,3.8,4.7,54,0.00,,,0.00,WUHU216HW,2013-05-10 20:06:00,
2013-05-10 16:11:00,73.6,56.9,29.92,SW,225,2.5,3.8,56,0.00,,,0.00,WUHU216HW,2013-05-10 20:11:00,
2013-05-10 16:16:00,73.6,57.3,29.92,South,180,1.3,3.8,57,0.00,,,0.00,WUHU216HW,2013-05-10 20:16:00,
2013-05-10 16:21:00,73.8,57.5,29.92,South,180,1.8,2.5,57,0.00,,,0.00,WUHU216HW,2013-05-10 20:21:00,
2013-05-10 16:26:00,73.8,57.5,29.92,South,180,2.0,2.7,57,0.00,,,0.00,WUHU216HW,2013-05-10 20:26:00,
2013-05-10 16:31:00,73.8,57.5,29.92,SSE,158,1.3,2.7,57,0.00,,,0.00,WUHU216HW,2013-05-10 20:31:00,
2013-05-10 16:36:00,73.6,57.9,29.92,SSW,203,1.6,2.5,58,0.00,,,0.00,WUHU216HW,2013-05-10 20:36:00,
2013-05-10 16:41:00,73.4,57.7,29.91,SSW,203,0.7,2.5,58,0.00,,,0.00,WUHU216HW,2013-05-10 20:41:00,
2013-05-10 16:46:00,73.4,58.1,29.91,SSW,203,1.6,2.5,59,0.00,,,0.00,WUHU216HW,2013-05-10 20:46:00,
2013-05-10 16:51:00,73.1,57.9,29.91,SSE,158,0.4,5.4,59,0.00,,,0.00,WUHU216HW,2013-05-10 20:51:00,
2013-05-10 16:56:00,72.9,57.7,29.91,SW,225,4.0,5.4,59,0.00,,,0.00,WUHU216HW,2013-05-10 20:56:00,
2013-05-10 17:01:00,72.7,57.5,29.91,SSE,158,1.8,4.0,59,0.00,,,0.00,WUHU216HW,2013-05-10 21:01:00,
2013-05-10 17:06:00,72.7,57.5,29.92,SW,225,1.3,2.9,59,0.00,,,0.00,WUHU216HW,2013-05-10 21:06:00,
2013-05-10 17:11:00,72.7,58.1,29.92,East,90,2.2,3.6,60,0.00,,,0.00,WUHU216HW,2013-05-10 21:11:00,
2013-05-10 17:16:00,72.5,57.9,29.92,ESE,113,2.5,3.6,60,0.00,,,0.00,WUHU216HW,2013-05-10 21:16:00,
2013-05-10 17:21:00,72.2,57.5,29.92,SSE,158,1.8,4.5,60,0.00,,,0.00,WUHU216HW,2013-05-10 21:21:00,
2013-05-10 17:26:00,71.8,57.7,29.92,SSE,158,2.0,4.5,61,0.00,,,0.00,WUHU216HW,2013-05-10 21:26:00,
2013-05-10 17:31:00,71.5,57.8,29.92,SSW,203,1.8,4.5,62,0.00,,,0.00,WUHU216HW,2013-05-10 21:31:00,
2013-05-10 17:36:00,71.1,57.4,29.92,SSW,203,1.1,4.5,62,0.00,,,0.00,WUHU216HW,2013-05-10 21:36:00,
2013-05-10 17:41:00,70.7,57.5,29.92,South,180,1.8,3.4,63,0.00,,,0.00,WUHU216HW,2013-05-10 21:41:00,
2013-05-10 17:46:00,70.6,57.3,29.92,SSW,203,2.5,5.1,63,0.00,,,0.00,WUHU216HW,2013-05-10 21:46:00,
2013-05-10 17:51:00,70.2,57.1,29.92,SSE,158,1.8,5.1,63,0.00,,,0.00,WUHU216HW,2013-05-10 21:51:00,
2013-05-10 17:56:00,70.0,57.2,29.92,SE,135,1.1,3.6,64,0.00,,,0.00,WUHU216HW,2013-05-10 21:56:00,
2013-05-10 17:58:00,70.0,57.2,29.92,South,180,1.1,3.6,64,0.00,,,0.00,WUHU216HW,2013-05-10 21:58:00,
2013-05-10 18:03:00,69.8,57.5,29.92,SE,135,1.1,2.9,65,0.00,,,0.00,WUHU216HW,2013-05-10 22:03:00,
2013-05-10 18:08:00,69.7,57.3,29.92,SSE,158,2.0,4.0,65,0.00,,,0.00,WUHU216HW,2013-05-10 22:08:00,
2013-05-10 18:13:00,69.5,57.2,29.92,SW,225,0.9,4.0,65,0.00,,,0.00,WUHU216HW,2013-05-10 22:13:00,
2013-05-10 18:18:00,69.3,57.0,29.92,SW,225,1.8,3.1,65,0.00,,,0.00,WUHU216HW,2013-05-10 22:18:00,
2013-05-10 18:23:00,68.9,56.7,29.92,SW,225,0.4,2.5,65,0.00,,,0.00,WUHU216HW,2013-05-10 22:23:00,
2013-05-10 18:28:00,68.8,56.9,29.91,SSE,158,4.5,4.5,66,0.00,,,0.00,WUHU216HW,2013-05-10 22:28:00,
2013-05-10 18:33:00,68.4,56.6,29.91,South,180,1.8,4.5,66,0.00,,,0.00,WUHU216HW,2013-05-10 22:33:00,
2013-05-10 18:38:00,68.0,56.3,29.91,SSW,203,1.1,4.5,66,0.00,,,0.00,WUHU216HW,2013-05-10 22:38:00,
2013-05-10 18:43:00,68.0,56.7,29.91,South,180,1.3,3.8,67,0.00,,,0.00,WUHU216HW,2013-05-10 22:43:00,
2013-05-10 18:48:00,68.0,56.7,29.91,South,180,0.7,2.7,67,0.00,,,0.00,WUHU216HW,2013-05-10 22:48:00,
2013-05-10 18:53:00,68.0,56.7,29.91,NW,315,0.4,2.7,67,0.00,,,0.00,WUHU216HW,2013-05-10 22:53:00,
2013-05-10 18:58:00,67.9,56.5,29.91,ESE,113,1.6,2.2,67,0.00,,,0.00,WUHU216HW,2013-05-10 22:58:00,
2013-05-10 19:03:00,67.7,56.4,29.91,SE,135,1.8,4.0,67,0.00,,,0.00,WUHU216HW,2013-05-10 23:03:00,
2013-05-10 19:08:00,67.3,56.0,29.91,SE,135,1.1,4.9,67,0.00,,,0.00,WUHU216HW,2013-05-10 23:08:00,
2013-05-10 19:13:00,67.3,56.4,29.90,South,180,1.3,4.9,68,0.00,,,0.00,WUHU216HW,2013-05-10 23:13:00,
2013-05-10 19:18:00,67.0,56.4,29.90,South,180,1.1,4.0,69,0.00,,,0.00,WUHU216HW,2013-05-10 23:18:00,
2013-05-10 19:23:00,67.0,56.4,29.90,SW,225,1.6,4.0,69,0.00,,,0.00,WUHU216HW,2013-05-10 23:23:00,
2013-05-10 19:28:00,66.8,56.3,29.91,SW,225,2.2,2.5,69,0.00,,,0.00,WUHU216HW,2013-05-10 23:28:00,
2013-05-10 19:33:00,66.8,56.3,29.91,SSE,158,1.8,2.5,69,0.00,,,0.00,WUHU216HW,2013-05-10 23:33:00,
2013-05-10 19:38:00,66.6,56.1,29.91,SW,225,0.4,2.2,69,0.00,,,0.00,WUHU216HW,2013-05-10 23:38:00,
2013-05-10 19:43:00,66.6,56.5,29.91,East,90,0.2,2.2,70,0.00,,,0.00,WUHU216HW,2013-05-10 23:43:00,
2013-05-10 19:48:00,66.6,56.5,29.90,South,180,0.4,2.2,70,0.00,,,0.00,WUHU216HW,2013-05-10 23:48:00,
2013-05-10 19:53:00,66.2,56.2,29.90,SSE,158,0.0,2.5,70,0.00,,,0.00,WUHU216HW,2013-05-10 23:53:00,
2013-05-10 19:58:00,66.1,56.0,29.90,East,90,0.9,2.5,70,0.00,,,0.00,WUHU216HW,2013-05-10 23:58:00,
2013-05-10 20:03:00,66.1,56.0,29.90,SSE,158,0.0,2.2,70,0.00,,,0.00,WUHU216HW,2013-05-11 00:03:00,
2013-05-10 20:07:00,65.9,56.3,29.90,SSE,158,0.7,1.6,71,0.00,,,0.00,WUHU216HW,2013-05-11 00:07:00,
2013-05-10 20:08:00,65.9,56.3,29.90,SSE,158,0.9,2.7,71,0.00,,,0.00,WUHU216HW,2013-05-11 00:08:00,
2013-05-10 20:13:00,65.9,56.3,29.90,SSE,158,0.7,2.7,71,0.00,,,0.00,WUHU216HW,2013-05-11 00:13:00,
2013-05-10 21:02:00,64.6,56.2,29.89,South,180,0.0,0.0,74,0.00,,,0.00,WUHU216HW,2013-05-11 01:02:00,
2013-05-10 21:07:00,64.6,56.2,29.90,South,180,0.9,4.5,74,0.00,,,0.00,WUHU216HW,2013-05-11 01:07:00,
2013-05-10 21:12:00,64.6,56.2,29.89,SE,135,0.4,4.5,74,0.00,,,0.00,WUHU216HW,2013-05-11 01:12:00,
2013-05-10 21:17:00,64.6,56.2,29.90,ESE,113,0.4,2.9,74,0.00,,,0.00,WUHU216HW,2013-05-11 01:17:00,
2013-05-10 21:22:00,64.6,56.2,29.90,SE,135,0.2,1.8,74,0.00,,,0.00,WUHU216HW,2013-05-11 01:22:00,
2013-05-10 21:27:00,64.6,56.2,29.90,SE,135,0.2,1.3,74,0.00,,,0.00,WUHU216HW,2013-05-11 01:27:00,
2013-05-10 21:32:00,64.6,56.2,29.90,SE,135,1.1,1.8,74,0.00,,,0.00,WUHU216HW,2013-05-11 01:32:00,
2013-05-10 21:37:00,64.4,56.0,29.90,SSW,203,0.4,2.0,74,0.00,,,0.00,WUHU216HW,2013-05-11 01:37:00,
2013-05-10 21:42:00,64.4,56.0,29.91,SSW,203,0.4,2.2,74,0.00,,,0.00,WUHU216HW,2013-05-11 01:42:00,
2013-05-10 21:47:00,64.4,56.0,29.90,NW,315,1.1,2.2,74,0.00,,,0.00,WUHU216HW,2013-05-11 01:47:00,
2013-05-10 21:52:00,64.3,56.2,29.91,SSE,158,0.4,1.8,75,0.00,,,0.00,WUHU216HW,2013-05-11 01:52:00,
2013-05-10 21:57:00,64.1,56.0,29.91,South,180,0.4,1.8,75,0.00,,,0.00,WUHU216HW,2013-05-11 01:57:00,
2013-05-10 22:02:00,63.9,55.8,29.90,South,180,1.1,2.9,75,0.00,,,0.00,WUHU216HW,2013-05-11 02:02:00,
2013-05-10 22:07:00,63.7,56.0,29.90,SSW,203,0.4,3.1,76,0.00,,,0.00,WUHU216HW,2013-05-11 02:07:00,
2013-05-10 22:12:00,63.5,55.8,29.90,WSW,248,0.0,3.1,76,0.00,,,0.00,WUHU216HW,2013-05-11 02:12:00,
2013-05-10 22:17:00,63.4,55.6,29.90,SE,135,0.2,1.6,76,0.00,,,0.00,WUHU216HW,2013-05-11 02:17:00,
2013-05-10 22:22:00,63.2,55.4,29.89,SSE,158,0.0,1.3,76,0.00,,,0.00,WUHU216HW,2013-05-11 02:22:00,
2013-05-10 22:27:00,63.0,55.3,29.89,South,180,0.4,1.6,76,0.00,,,0.00,WUHU216HW,2013-05-11 02:27:00,
2013-05-10 22:32:00,63.0,55.3,29.89,SE,135,1.1,1.6,76,0.00,,,0.00,WUHU216HW,2013-05-11 02:32:00,
2013-05-10 22:37:00,62.8,55.1,29.88,SSE,158,0.0,1.3,76,0.00,,,0.00,WUHU216HW,2013-05-11 02:37:00,
2013-05-10 22:42:00,62.8,55.4,29.88,SSE,158,0.9,1.3,77,0.00,,,0.00,WUHU216HW,2013-05-11 02:42:00,
2013-05-10 22:47:00,62.6,55.3,29.88,SSE,158,1.1,1.6,77,0.00,,,0.00,WUHU216HW,2013-05-11 02:47:00,
2013-05-10 22:52:00,62.5,55.1,29.88,SSE,158,0.0,2.5,77,0.00,,,0.00,WUHU216HW,2013-05-11 02:52:00,
2013-05-10 22:57:00,62.5,55.1,29.88,SSE,158,0.0,2.5,77,0.00,,,0.00,WUHU216HW,2013-05-11 02:57:00,
2013-05-10 23:02:00,62.5,55.1,29.88,SSE,158,0.0,1.6,77,0.00,,,0.00,WUHU216HW,2013-05-11 03:02:00,
2013-05-10 23:07:00,62.5,55.1,29.88,SE,135,0.2,0.9,77,0.00,,,0.00,WUHU216HW,2013-05-11 03:07:00,
2013-05-10 23:12:00,62.5,55.1,29.87,SSE,158,0.7,1.8,77,0.00,,,0.00,WUHU216HW,2013-05-11 03:12:00,
2013-05-10 23:17:00,62.5,55.4,29.87,SSE,158,1.1,1.8,78,0.00,,,0.00,WUHU216HW,2013-05-11 03:17:00,
2013-05-10 23:22:00,62.5,55.4,29.87,South,180,0.0,1.8,78,0.00,,,0.00,WUHU216HW,2013-05-11 03:22:00,
2013-05-10 23:27:00,62.5,55.4,29.87,SE,135,0.0,1.1,78,0.00,,,0.00,WUHU216HW,2013-05-11 03:27:00,
2013-05-10 23:32:00,62.5,55.4,29.87,SSE,158,0.7,0.9,78,0.00,,,0.00,WUHU216HW,2013-05-11 03:32:00,
2013-05-10 23:37:00,62.6,55.6,29.87,ESE,113,0.0,1.8,78,0.00,,,0.00,WUHU216HW,2013-05-11 03:37:00,
2013-05-10 23:42:00,62.6,55.6,29.86,SSE,158,0.0,1.8,78,0.00,,,0.00,WUHU216HW,2013-05-11 03:42:00,
2013-05-10 23:47:00,62.6,55.6,29.86,SE,135,0.7,2.0,78,0.00,,,0.00,WUHU216HW,2013-05-11 03:47:00,
2013-05-10 23:52:00,62.6,55.6,29.86,SE,135,0.0,2.0,78,0.00,,,0.00,WUHU216HW,2013-05-11 03:52:00,
2013-05-10 23:57:00,62.6,55.6,29.86,SE,135,0.0,1.8,78,0.00,,,0.00,WUHU216HW,2013-05-11 03:57:00,